SQ7FZR-13 Weather Reports


time (UTC)temp
C
wind
direction
speed
KPH
gust
KPH
rain 1hr
cm
rain 24hr
cm
rain mn
cm
humidity
%
barometer
mb
20260508052541 11 1 4.8 9.7 0.00 0.00 0.00 81 1016.6
20260508051842 11 1 1.6 9.7 0.00 0.00 0.00 81 1016.5
20260508051141 11 0 0.0 0.0 0.00 0.00 0.00 81 1016.5
20260508050441 11 1 0.0 3.2 0.00 0.00 0.00 81 1016.4
20260508045741 11 1 0.0 3.2 0.00 0.00 0.00 81 1016.4
20260508045041 11 0 0.0 0.0 0.00 0.00 0.00 81 1016.6
20260508044341 11 1 0.0 3.2 0.00 0.00 0.00 81 1016.5
20260508043641 11 1 0.0 3.2 0.00 0.00 0.00 81 1016.4
20260508042941 11 0 0.0 0.0 0.00 0.00 0.00 81 1016.4
20260508041541 11 0 0.0 0.0 0.00 0.00 0.00 80 1016.2
20260508035943 11 1 3.2 9.7 0.00 0.00 0.00 80 1016.2
20260508034543 11 1 0.0 3.2 0.00 0.00 0.00 80 1016.0
20260508033843 11 1 0.0 3.2 0.00 0.00 0.00 80 1016.0
20260508033143 11 1 1.6 4.8 0.00 0.00 0.00 80 1015.9
20260508031743 11 0 0.0 0.0 0.00 0.00 0.00 80 1015.7
20260508031043 11 0 0.0 0.0 0.00 0.00 0.00 80 1015.7
20260508030343 11 0 0.0 0.0 0.00 0.00 0.00 79 1015.6
20260508025643 11 1 1.6 9.7 0.00 0.00 0.00 79 1015.7
20260508024243 11 1 0.0 3.2 0.00 0.00 0.00 80 1015.7
20260508023543 11 0 0.0 0.0 0.00 0.00 0.00 80 1015.7
20260508022143 11 0 0.0 0.0 0.00 0.00 0.00 79 1015.6
20260508021442 11 0 0.0 0.0 0.00 0.00 0.00 79 1015.5
20260508020743 11 0 0.0 0.0 0.00 0.00 0.00 79 1015.4
20260508020042 11 0 0.0 0.0 0.00 0.00 0.00 79 1015.2
20260508015342 11 0 0.0 0.0 0.00 0.00 0.00 79 1015.2
20260508013943 11 1 1.6 3.2 0.00 0.00 0.00 79 1015.2
20260508013243 11 1 1.6 3.2 0.00 0.00 0.00 79 1015.4
20260508012542 11 0 0.0 0.0 0.00 0.00 0.00 78 1015.6
20260508011842 11 0 0.0 0.0 0.00 0.00 0.00 78 1015.5
20260508010442 11 1 3.2 11.3 0.00 0.00 0.00 78 1015.4
20260508005742 11 1 3.2 11.3 0.00 0.00 0.00 78 1015.4
20260508004343 12 0 0.0 0.0 0.00 0.00 0.00 78 1015.4
20260508003642 12 1 3.2 6.4 0.00 0.00 0.00 78 1015.3
20260508002943 12 1 1.6 6.4 0.00 0.00 0.00 78 1015.3
20260508002242 12 0 0.0 0.0 0.00 0.00 0.00 79 1015.3
20260508000142 12 7 4.8 6.4 0.00 0.00 0.00 78 1015.2
20260507235442 12 8 3.2 6.4 0.00 0.00 0.00 79 1015.2
20260507234042 12 0 0.0 0.0 0.00 0.00 0.00 79 1015.5
20260507233342 12 0 0.0 0.0 0.00 0.00 0.00 78 1015.5
20260507232642 12 0 0.0 0.0 0.00 0.00 0.00 78 1015.6
20260507231942 12 0 0.0 0.0 0.00 0.00 0.00 78 1015.5
20260507230542 12 0 0.0 0.0 0.00 0.00 0.00 79 1015.6
20260507225842 12 0 0.0 0.0 0.00 0.00 0.00 79 1015.4
20260507225142 12 0 0.0 0.0 0.00 0.00 0.00 79 1015.3
20260507223742 12 1 6.4 9.7 0.00 0.00 0.00 79 1015.5
20260507223042 12 1 0.0 9.7 0.00 0.00 0.00 79 1015.4
20260507222342 12 0 0.0 0.0 0.00 0.00 0.00 80 1015.3
20260507221642 13 1 0.0 3.2 0.00 0.00 0.00 80 1015.2
20260507220242 13 1 0.0 3.2 0.00 0.00 0.00 80 1014.9
20260507215542 13 1 0.0 3.2 0.00 0.00 0.00 80 1014.9
20260507214842 13 0 0.0 0.0 0.00 0.00 0.00 80 1014.9
20260507213442 13 0 0.0 0.0 0.00 0.00 0.00 80 1014.8
20260507212742 13 0 0.0 0.0 0.00 0.00 0.00 79 1014.5
20260507212042 13 0 0.0 0.0 0.00 0.00 0.00 79 1014.6
20260507211342 13 0 0.0 0.0 0.00 0.00 0.00 78 1014.6
20260507205943 13 0 0.0 0.0 0.00 0.00 0.00 78 1014.7
20260507205243 13 0 0.0 0.0 0.00 0.00 0.00 78 1014.7
20260507203842 13 0 0.0 0.0 0.00 0.00 0.00 78 1014.5
20260507202442 13 0 0.0 0.0 0.00 0.00 0.00 77 1014.5
20260507201742 13 0 0.0 0.0 0.00 0.00 0.00 77 1014.4
20260507201042 14 0 0.0 0.0 0.00 0.00 0.00 76 1014.5
20260507200342 14 0 0.0 0.0 0.00 0.00 0.00 76 1014.5
20260507194942 14 0 0.0 0.0 0.00 0.00 0.00 76 1014.4
20260507194242 14 0 0.0 0.0 0.00 0.00 0.00 76 1014.4
20260507193542 14 0 0.0 0.0 0.00 0.00 0.00 75 1014.6
20260507192842 15 0 0.0 0.0 0.00 0.00 0.00 75 1014.4
20260507192142 15 0 0.0 0.0 0.00 0.00 0.00 75 1014.3
20260507190742 15 1 0.0 1.6 0.00 0.00 0.00 72 1014.3
20260507190042 15 349 4.8 9.7 0.00 0.00 0.00 71 1014.3
20260507185341 15 359 4.8 9.7 0.00 0.00 0.00 70 1014.4
20260507184642 16 23 1.6 3.2 0.00 0.00 0.00 70 1014.2
20260507183941 16 1 0.0 3.2 0.00 0.00 0.00 69 1014.2
20260507183242 16 1 0.0 3.2 0.00 0.00 0.00 68 1013.9
20260507182542 16 22 3.2 6.4 0.00 0.00 0.00 67 1013.8
20260507181842 16 356 3.2 9.7 0.00 0.00 0.00 67 1013.7
20260507181142 16 1 3.2 11.3 0.00 0.00 0.00 67 1013.7
20260507175042 16 23 0.0 3.2 0.00 0.00 0.00 66 1013.6
20260507174341 17 22 0.0 3.2 0.00 0.00 0.00 66 1013.4
20260507173641 17 0 0.0 0.0 0.00 0.00 0.00 65 1013.4
20260507172941 17 0 0.0 0.0 0.00 0.00 0.00 65 1013.2
20260507172241 17 1 0.0 3.2 0.00 0.00 0.00 64 1012.8
20260507171541 17 1 0.0 3.2 0.00 0.00 0.00 64 1013.0
20260507170141 17 1 1.6 3.2 0.00 0.00 0.00 64 1012.9
20260507165441 17 3 3.2 11.3 0.00 0.00 0.00 63 1012.9
20260507164742 17 1 4.8 11.3 0.00 0.00 0.00 63 1012.8
20260507164042 18 7 4.8 9.7 0.00 0.00 0.00 62 1012.8
20260507161241 18 1 1.6 11.3 0.00 0.00 0.00 61 1012.4
20260507160541 18 1 4.8 11.3 0.00 0.00 0.00 61 1012.5
20260507155842 18 4 6.4 8.0 0.00 0.00 0.00 61 1012.6
20260507155142 18 5 8.0 9.7 0.00 0.00 0.00 60 1012.7
20260507154441 19 1 4.8 6.4 0.00 0.00 0.00 60 1012.6
20260507153741 19 1 4.8 8.0 0.00 0.00 0.00 59 1012.5
20260507153041 19 1 4.8 11.3 0.00 0.00 0.00 59 1012.6
20260507152341 20 8 4.8 11.3 0.00 0.00 0.00 59 1012.6
20260507151641 20 22 1.6 6.4 0.00 0.00 0.00 59 1012.5
20260507150941 20 3 4.8 6.4 0.00 0.00 0.00 58 1012.5
20260507150241 20 1 4.8 6.4 0.00 0.00 0.00 58 1012.5
20260507145541 20 4 4.8 8.0 0.00 0.00 0.00 57 1012.5
20260507144841 20 8 4.8 9.7 0.00 0.00 0.00 57 1012.4
20260507143441 21 9 3.2 9.7 0.00 0.00 0.00 57 1012.5
20260507142041 21 10 4.8 11.3 0.00 0.00 0.00 58 1012.1
20260507140641 20 7 6.4 12.9 0.00 0.00 0.00 60 1012.4
20260507135941 20 4 4.8 8.0 0.00 0.00 0.00 61 1012.2
20260507135241 20 356 3.2 6.4 0.00 0.00 0.00 62 1012.5
20260507132441 20 30 6.4 11.3 0.00 0.00 0.00 61 1012.5
20260507131741 20 358 6.4 11.3 0.00 0.00 0.00 60 1012.5
20260507131041 20 13 8.0 11.3 0.00 0.00 0.00 61 1012.6
20260507130341 20 5 9.7 12.9 0.00 0.00 0.00 61 1012.5
20260507125641 19 1 6.4 12.9 0.00 0.00 0.00 63 1012.3
20260507124941 19 181 3.2 11.3 0.00 0.00 0.00 62 1012.3
20260507122141 20 1 8.0 14.5 0.00 0.00 0.00 61 1012.2
20260507121441 20 14 9.7 14.5 0.00 0.00 0.00 61 1012.3
20260507120741 20 5 8.0 14.5 0.00 0.00 0.00 61 1012.1
20260507120041 20 18 8.0 11.3 0.00 0.00 0.00 61 1011.8
20260507115341 20 8 9.7 11.3 0.00 0.00 0.00 60 1011.6
20260507114641 20 1 8.0 9.7 0.00 0.00 0.00 60 1011.7
20260507113941 20 1 8.0 9.7 0.00 0.00 0.00 59 1011.8
20260507112541 21 18 6.4 11.3 0.00 0.00 0.00 58 1011.3
20260507111841 21 5 9.7 11.3 0.00 0.00 0.00 56 1011.3
20260507111141 21 8 3.2 11.3 0.00 0.00 0.00 56 1011.2
20260507110441 21 22 1.6 3.2 0.00 0.00 0.00 56 1011.0
20260507105741 21 22 0.0 3.2 0.00 0.00 0.00 56 1010.9
20260507105041 21 191 4.8 9.7 0.00 0.00 0.00 56 1010.8
20260507104341 21 224 3.2 9.7 0.00 0.00 0.00 56 1010.9
20260507103641 21 13 4.8 9.7 0.00 0.00 0.00 56 1010.6
20260507102941 21 22 4.8 9.7 0.00 0.00 0.00 56 1010.6
20260507102241 21 7 1.6 4.8 0.00 0.00 0.00 57 1010.6
20260507100841 21 7 3.2 12.9 0.00 0.00 0.00 56 1010.5
20260507100141 21 161 3.2 11.3 0.00 0.00 0.00 55 1010.4
20260507095440 21 181 6.4 11.3 0.00 0.00 0.00 55 1010.2
20260507094741 21 181 1.6 4.8 0.00 0.00 0.00 57 1010.2
20260507094041 21 165 4.8 12.9 0.00 0.00 0.00 56 1010.2
20260507093341 21 109 9.7 12.9 0.00 0.00 0.00 56 1010.2
20260507091940 21 1 6.4 11.3 0.00 0.00 0.00 57 1010.0
20260507091241 21 165 4.8 9.7 0.00 0.00 0.00 57 1009.9
20260507090540 21 300 8.0 12.9 0.00 0.00 0.00 56 1009.9
20260507085840 21 183 9.7 12.9 0.00 0.00 0.00 56 1009.9
20260507085141 21 167 3.2 9.7 0.00 0.00 0.00 57 1009.9
20260507083740 21 356 6.4 11.3 0.00 0.00 0.00 57 1009.6
20260507083040 21 352 4.8 12.9 0.00 0.00 0.00 57 1009.6
20260507082340 20 359 6.4 12.9 0.00 0.00 0.00 56 1009.3
20260507081641 20 146 6.4 12.9 0.00 0.00 0.00 57 1009.4
20260507080941 20 45 8.0 12.9 0.00 0.00 0.00 57 1009.4
20260507075540 20 178 3.2 12.9 0.00 0.00 0.00 58 1009.4
20260507074840 20 172 1.6 8.0 0.00 0.00 0.00 58 1009.2
20260507074141 20 162 4.8 9.7 0.00 0.00 0.00 59 1009.1
20260507073440 20 181 6.4 9.7 0.00 0.00 0.00 60 1009.1
20260507072740 19 181 1.6 4.8 0.00 0.00 0.00 62 1009.0
20260507071340 19 188 3.2 6.4 0.00 0.00 0.00 63 1008.8
20260507070640 18 128 3.2 9.7 0.00 0.00 0.00 65 1008.7
20260507065940 18 85 8.0 9.7 0.00 0.00 0.00 67 1008.7
20260507065240 18 178 4.8 8.0 0.00 0.00 0.00 68 1008.7
20260507064540 18 181 1.6 3.2 0.00 0.00 0.00 69 1008.7
20260507063840 17 1 1.6 3.2 0.00 0.00 0.00 69 1008.7
20260507063140 17 1 1.6 3.2 0.00 0.00 0.00 72 1008.7
20260507062440 16 181 0.0 3.2 0.00 0.00 0.00 73 1008.8
20260507061740 16 181 0.0 1.6 0.00 0.00 0.00 74 1008.7
20260507061040 16 0 0.0 0.0 0.00 0.00 0.00 75 1008.7
20260507060340 16 0 0.0 0.0 0.00 0.00 0.00 76 1008.7
20260507055640 16 181 3.2 8.0 0.00 0.00 0.00 76 1008.7
20260507054940 15 181 1.6 4.8 0.00 0.00 0.00 77 1008.7
20260507054240 15 181 1.6 3.2 0.00 0.00 0.00 78 1008.6